sat.trackr.live / text

‹ back to catalog

STARLINK-35723

NORAD 66211 · 2025-244F

PAYLOAD ACTIVE UNKNOWN

§ Identity

Operator
Country
US
Launch date
2025-10-28
Launch site
AFWTR
Launch vehicle
Mass (kg)
RCS (m²)

Purposes: comms

External: N2YO · Heavens-Above · Gunter

§ Orbital elements

Epoch: 2026-09-20T08:42:44.864928Z

Period
93.85 min
Inclination
53.1603°
Eccentricity
0.0001567
Mean motion
15.34400270 rev/d
Perigee alt
461.6 km
Apogee alt
463.8 km
Semi-major
6,840.8 km
B*
7.8928e-4
RAAN
42.2194°
Arg perigee
84.0975°
Mean anomaly
276.0206°
Rev number
5,150

§ Raw data

STARLINK-357231 66211U 25244F   26263.36301927  .00026385  00000+0  78928-3 0  99932 66211  53.1603  42.2194 0001567  84.0975 276.0206 15.34400270 51500

JSON: /api/v1/satellites/66211 · /tle

For live sub-satellite position, see the globe view (requires WebGL).

§ Visibility from observer

Set your observer location to see the next 7 days of passes ≥ 10°. The values pass through the URL so the page stays shareable.

No JS? Fill the form by hand. The geolocation button needs JavaScript.